Regional Weather Roundup
Issued by NWS

Home | Current Version | Previous Version | Text Only | Print | Product List | Glossary Off
Versions: 1 2 3 4 5 6 7 8 9 10 11 12 13 14 15 16 17 18 19 20 21 22 23 24 25 26 27 28 29 30 31 32 33 34 35 36 37 38 39 40 41 42 43 44 45 46 47 48 49 50

000
ASUS43 KOAX 311810
RWRNE

WEATHER ROUNDUP FOR NEBRASKA
NATIONAL WEATHER SERVICE OMAHA NE
100 PM CDT TUE MAY 31 2016

NOTES: SATELLITE DATA IS BEING USED TO AUGMENT CLOUD COVER ABOVE
       12000 FEET.
       "FAIR" INDICATES FEW OR NO CLOUDS BELOW 12,000 FEET WITH NO
       SIGNIFICANT WEATHER AND/OR OBSTRUCTIONS TO VISIBILITY.

  * THESE STATIONS DO NOT REPORT WEATHER SUCH AS RAIN...SNOW OR FOG.

NEZ001>004-019>022-054>056-311900-
NEBRASKA PANHANDLE

CITY           SKY/WX    TMP DP  RH WIND       PRES   REMARKS
SCOTTSBLUFF    CLOUDY    64  40  41 W12       30.09F
6HR MIN TEMP:  49; 6HR MAX TEMP:  64; 6HR PCP: TRACE;

ALLIANCE       SUNNY     64  37  36 W14G20    30.06F
6HR MIN TEMP:  49; 6HR MAX TEMP:  65;

CHADRON        MOSUNNY   68  36  30 NW20G26   30.04S
6HR MIN TEMP:  47; 6HR MAX TEMP:  68;

KIMBALL        CLOUDY    53  40  62 NE5       30.13F
SIDNEY         CLOUDY    57  41  55 VRB5      30.13S
6HR MIN TEMP:  48; 6HR MAX TEMP:  58;

$$

NEZ057>060-069>072-079>082-311900-
SOUTHWEST NEBRASKA

CITY           SKY/WX    TMP DP  RH WIND       PRES   REMARKS
NORTH PLATTE   CLOUDY    63  45  51 VRB3      30.07F
6HR MIN TEMP:  51; 6HR MAX TEMP:  64;

IMPERIAL       MOSUNNY   63  47  55 NE3       30.09F
6HR MIN TEMP:  52; 6HR MAX TEMP:  63;

LEXINGTON      MOSUNNY   65  46  51 N12       30.04F
MCCOOK         SUNNY     68  46  45 N8        30.06S
6HR MIN TEMP:  53; 6HR MAX TEMP:  68;

OGALLALA       CLOUDY    61  45  55 W5        30.08F
$$

NEZ005>010-023>029-035>040-094-311900-
NORTH CENTRAL NEBRASKA

CITY           SKY/WX    TMP DP  RH WIND       PRES   REMARKS
VALENTINE      SUNNY     69  37  30 W23G31    29.98F
6HR MIN TEMP:  49; 6HR MAX TEMP:  70;

AINSWORTH      SUNNY     68  43  40 W21       29.99F
BROKEN BOW     PTSUNNY   65  44  46 NW10      30.04F
6HR MIN TEMP:  53; 6HR MAX TEMP:  66;

O`NEILL        CLOUDY    66  43  43 SW7       30.00F
ORD            MOSUNNY   68  41  37 W8        30.01F
6HR MIN TEMP:  54; 6HR MAX TEMP:  70;

THEDFORD       CLOUDY    63  47  54 SW9       30.05F
$$

NEZ041-046>049-061>064-073>077-083>087-311900-
SOUTH CENTRAL NEBRASKA

CITY           SKY/WX    TMP DP  RH WIND       PRES   REMARKS
GRAND ISLAND   SUNNY     69  49  48 N9        30.02S
6HR MIN TEMP:  59; 6HR MAX TEMP:  70;

AURORA         MOSUNNY   68  53  57 N9        30.01S
HASTINGS       SUNNY     68  52  56 NE12      30.02S
6HR MIN TEMP:  58; 6HR MAX TEMP:  68;

HEBRON         CLOUDY    69  58  68 N10       29.99S
HOLDREGE       SUNNY     67  48  50 N12G17    30.03F
KEARNEY *      SUNNY     70  46  43 N13G23    30.03F
YORK           PTSUNNY   68  55  64 N15       30.00S
$$

NEZ011>018-030>034-042>045-311900-
NORTHEAST NEBRASKA

CITY           SKY/WX    TMP DP  RH WIND       PRES   REMARKS
NORFOLK        SUNNY     69  49  48 NW14G21   29.97F
6HR MIN TEMP:  58; 6HR MAX TEMP:  69;

ALBION         SUNNY     68  47  46 NW14      30.00S
BLAIR          CLOUDY    70  61  72 NW9       29.94F
FREMONT        CLOUDY    69  56  65 NW10G16   29.97S
TEKAMAH        PTSUNNY   71  58  63 N15       29.94F
6HR MIN TEMP:  63; 6HR MAX TEMP:  72; 6HR PCP:  0.06;

WAYNE          MOSUNNY   69  53  57 NW12      29.97F
$$

NEZ050>053-065>068-078-088>093-311900-
SOUTHEAST NEBRASKA

CITY           SKY/WX    TMP DP  RH WIND       PRES   REMARKS
LINCOLN        CLOUDY    72  57  59 NW8G16    29.96F
6HR MIN TEMP:  64; 6HR MAX TEMP:  74; 6HR PCP: TRACE;

OMAHA EPPLEY   CLOUDY    72  61  68 NW10      29.93F
6HR MIN TEMP:  66; 6HR MAX TEMP:  72;

BEATRICE       PTSUNNY   71  58  65 N9        29.96S
FALLS CITY     LGT RAIN  76  63  64 W6        29.91F
6HR MIN TEMP:  64; 6HR MAX TEMP:  78; 6HR PCP: TRACE;

NEBRASKA CITY  CLOUDY    71  63  74 NW10G16   29.94S
PLATTSMOUTH    CLOUDY    71  63  75 NW10      29.94S
$$

NEZ044-045-051>053-067-311900-
OMAHA AREA

CITY           SKY/WX    TMP DP  RH WIND       PRES   REMARKS
OMAHA EPPLEY   CLOUDY    72  61  68 NW10      29.93F
6HR MIN TEMP:  66; 6HR MAX TEMP:  72;

BLAIR          CLOUDY    70  61  72 NW9       29.94F
FREMONT        CLOUDY    69  56  65 NW10G16   29.97S
MILLARD        CLOUDY    71  60  69 NW8       29.94S
OFFUTT AFB     CLOUDY    70  61  73 NW7       29.93S
PLATTSMOUTH    CLOUDY    71  63  75 NW10      29.94S
WAHOO          MOCLDY    71  55  57 NW15      29.96S
$$



USA.gov is the U.S. government's official web portal to all federal, state and local government web resources and services.